This is the latest recevied weather packets stored in our database for station/object DO3HUM-5. If no packets are shown the sender has not sent any weather packets the latest 10 day(s).
| Time | Temp. | Humidity | Pressure | Rain* | Wind** | Luminosity | Snow |
|---|---|---|---|---|---|---|---|
| 1777658463 | 18.89° C | 47% | 1032.6 hPa | 0 mm | - | - | - |
| 1777657854 | 19.44° C | 46% | 1032.5 hPa | 0 mm | - | - | - |
| 1777657252 | 20° C | 46% | 1032.5 hPa | 0 mm | - | - | - |
| 1777656650 | 20° C | 45% | 1032.6 hPa | 0 mm | - | - | - |
| 1777656047 | 20.56° C | 45% | 1032.7 hPa | 0 mm | - | - | - |
| 1777655443 | 20.56° C | 44% | 1032.9 hPa | 0 mm | - | - | - |
| 1777654839 | 21.11° C | 44% | 1032.8 hPa | 0 mm | - | - | - |
| 1777654237 | 21.11° C | 43% | 1032.9 hPa | 0 mm | - | - | - |
| 1777653634 | 21.11° C | 43% | 1033 hPa | 0 mm | - | - | - |
| 1777653032 | 21.11° C | 43% | 1033.2 hPa | 0 mm | - | - | - |
| 1777652424 | 21.11° C | 43% | 1033.1 hPa | 0 mm | - | - | - |
| 1777651823 | 21.11° C | 43% | 1033.3 hPa | 0 mm | - | - | - |
| 1777651219 | 21.11° C | 43% | 1033.4 hPa | 0 mm | - | - | - |
| 1777650617 | 21.11° C | 43% | 1033.4 hPa | 0 mm | - | - | - |
| 1777650075 | 21.11° C | 43% | 1033.6 hPa | 0 mm | - | - | - |
| 1777649471 | 21.11° C | 43% | 1033.7 hPa | 0 mm | - | - | - |
| 1777648868 | 21.67° C | 43% | 1033.8 hPa | 0 mm | - | - | - |
| 1777648262 | 21.11° C | 43% | 1033.9 hPa | 0 mm | - | - | - |
| 1777647659 | 21.11° C | 42% | 1034.2 hPa | 0 mm | - | - | - |
| 1777647056 | 21.11° C | 42% | 1034.2 hPa | 0 mm | - | - | - |
| 1777646453 | 21.67° C | 43% | 1034.3 hPa | 0 mm | - | - | - |
| 1777645852 | 21.67° C | 41% | 1034.4 hPa | 0 mm | - | - | - |
| 1777645247 | 22.22° C | 40% | 1034.5 hPa | 0 mm | - | - | - |
| 1777644646 | 21.67° C | 41% | 1034.6 hPa | 0 mm | - | - | - |
| 1777644041 | 22.22° C | 41% | 1034.6 hPa | 0 mm | - | - | - |
* Rain latest hour (hover to see other rain measurements)
** Current wind speed in m/s (hover to see current wind gust speed)